Weather History for LKPR - May, 2013

Change the Weather History Date:

Saturday, May 11, 2013

  Actual Average Record
Temperature  
Mean Temperature 52 °F -  
Max Temperature 55 °F 67 °F 85 °F (2012)
Min Temperature 50 °F 47 °F 35 °F (2005)
Degree Days  
Heating Degree Days 12    
Growing Degree Days 2 (Base 50)    
Moisture  
Dew Point 48 °F    
Average Humidity 86    
Maximum Humidity 100    
Minimum Humidity 67    
Precipitation  
Precipitation 0.01 in 0.10 in - ()
Sea Level Pressure  
Sea Level Pressure 29.97 in    
Wind  
Wind Speed 5 mph ()    
Max Wind Speed 9 mph    
Max Gust Speed -    
Visibility 7.1 miles    
Events Rain    
Averages and records for this station are not official NWS values.
T = Trace of Precipitation, MM = Missing Value Source: Averaged Metar Reports

Daily Weather History Graph

Daily Weather History Graph

Search for Another Location

Airport or City:

Trip Planner

Search our weather history database for the weather conditions in past years. The results will help you decide how hot, cold, wet, or windy it might be!

Date:

Astronomy

May. 11, 2013 Rise Set
Actual Time 5:22 AM CEST 8:37 PM CEST
Civil Twilight 4:43 AM CEST 9:16 PM CEST
Nautical Twilight 3:52 AM CEST 10:07 PM CEST
Astronomical Twilight 2:46 AM CEST 11:14 PM CEST
Moon 6:14 AM CEST (5/11) 10:06 PM CEST (5/11)
Length of Visible Light 16h 32m
Length of Day
15h 14m
New Moon, 2% of the Moon is Illuminated
May 11
New Moon
May 18
First Quarter
May 25
Full
May 31
Last Quarter
Jun 8
New

Hourly Weather History & Observations

Time (CEST) Temp. Dew Point Humidity Pressure Visibility Wind Dir Wind Speed Gust Speed Precip Events Conditions
12:00 AM 50.0 °F 50.0 °F 100% 30.01 in - WSW 5.8 mph - N/A   Clear
12:30 AM 51.8 °F 50.0 °F 94% 30.01 in - SW 5.8 mph - N/A   Clear
1:00 AM 51.8 °F 50.0 °F 94% 30.01 in - SW 6.9 mph - N/A   Clear
1:30 AM 50.0 °F 50.0 °F 100% 30.01 in - WSW 5.8 mph - N/A   Clear
2:00 AM 50 °F 49 °F 96% 30.02 in 9 mi WSW 6.7 mph - -   Partly Cloudy
2:00 AM 50.0 °F 50.0 °F 100% 30.01 in - SW 4.6 mph - N/A   Clear
2:30 AM 50.0 °F 50.0 °F 100% 30.01 in - SW 5.8 mph - N/A   Clear
3:00 AM 50.0 °F 50.0 °F 100% 30.01 in - SW 3.5 mph - N/A   Clear
3:30 AM 50.0 °F 50.0 °F 100% 29.98 in 6.2 mi SW 4.6 mph - N/A   Scattered Clouds
4:00 AM 50.0 °F 50.0 °F 100% 29.98 in - WSW 2.3 mph - N/A   Clear
4:30 AM 50.0 °F 50.0 °F 100% 29.98 in - WNW 3.5 mph - N/A   Clear
5:00 AM 50.0 °F 48.2 °F 94% 29.98 in - NNW 3.5 mph - N/A   Clear
5:30 AM 50.0 °F 48.2 °F 94% 29.98 in - NW 3.5 mph - N/A   Clear
6:00 AM 50.0 °F 48.2 °F 94% 29.98 in - NW 4.6 mph - N/A   Clear
6:30 AM 50.0 °F 48.2 °F 94% 29.98 in - NW 5.8 mph - N/A   Clear
7:00 AM 51.8 °F 48.2 °F 88% 29.98 in - NW 5.8 mph - N/A   Clear
7:30 AM 51.8 °F 48.2 °F 88% 29.98 in - NNW 4.6 mph - N/A   Clear
8:00 AM 52 °F 48 °F 83% 30.00 in 16 mi North 6.7 mph - -   Scattered Clouds
8:00 AM 51.8 °F 48.2 °F 88% 29.98 in - NNW 5.8 mph - N/A   Clear
8:30 AM 51.8 °F 48.2 °F 88% 29.98 in - North 3.5 mph - N/A   Clear
9:00 AM 53.6 °F 48.2 °F 82% 29.98 in - NNW 4.6 mph - N/A   Clear
9:30 AM 51.8 °F 48.2 °F 88% 29.98 in - NNW 3.5 mph - N/A   Clear
10:00 AM 51.8 °F 48.2 °F 88% 29.98 in - WNW 3.5 mph - N/A   Clear
10:30 AM 53.6 °F 48.2 °F 82% 29.98 in - NW 5.8 mph - N/A   Clear
10:36 AM 53.6 °F 48.2 °F 82% 29.98 in 6.2 mi NW 5.8 mph - N/A Rain Light Rain
10:50 AM 53.6 °F 48.2 °F 82% 29.98 in 6.2 mi WNW 6.9 mph - N/A   Partly Cloudy
11:00 AM 53.6 °F 48.2 °F 82% 29.98 in 6.2 mi NW 6.9 mph - N/A   Partly Cloudy
11:30 AM 53.6 °F 46.4 °F 77% 29.98 in 6.2 mi NW 4.6 mph - N/A Rain Light Rain
11:45 AM 55.4 °F 48.2 °F 77% 29.98 in 6.2 mi NW 4.6 mph - N/A   Partly Cloudy
12:00 PM 53.6 °F 46.4 °F 77% 29.98 in 6.2 mi WNW 4.6 mph - N/A   Partly Cloudy
12:30 PM 55.4 °F 48.2 °F 77% 29.98 in 6.2 mi West 4.6 mph - N/A Rain Light Rain
1:00 PM 55.4 °F 48.2 °F 77% 29.98 in 6.2 mi West 5.8 mph - N/A   Scattered Clouds
1:21 PM 55.4 °F 46.4 °F 72% 29.98 in 6.2 mi West 3.5 mph - N/A Rain Light Rain
1:30 PM 55.4 °F 48.2 °F 77% 29.98 in 6.2 mi Variable 2.3 mph - N/A Rain Light Rain
2:00 PM 55 °F 48 °F 71% 29.97 in 16 mi SSW 4.5 mph - - Rain Light Rain
2:00 PM 55.4 °F 48.2 °F 77% 29.98 in 6.2 mi SSW 4.6 mph - N/A Rain Light Rain
2:30 PM 55.4 °F 48.2 °F 77% 29.95 in 6.2 mi SSW 5.8 mph - N/A Rain Light Rain
3:00 PM 55.4 °F 48.2 °F 77% 29.95 in 6.2 mi SSW 8.1 mph - N/A Rain Light Rain
3:30 PM 55.4 °F 48.2 °F 77% 29.95 in 6.2 mi SW 8.1 mph - N/A Rain Light Rain
4:00 PM 55.4 °F 46.4 °F 72% 29.95 in 6.2 mi SSW 5.8 mph - N/A   Scattered Clouds
4:30 PM 55.4 °F 46.4 °F 72% 29.95 in 6.2 mi SSW 4.6 mph - N/A Rain Light Rain
5:00 PM 55.4 °F 44.6 °F 67% 29.95 in 6.2 mi SSW 4.6 mph - N/A Rain Light Rain
5:30 PM 53.6 °F 48.2 °F 82% 29.95 in 6.2 mi Variable 2.3 mph - N/A Rain Light Rain
6:00 PM 53.6 °F 48.2 °F 82% 29.95 in 6.2 mi SW 4.6 mph - N/A Rain Light Rain
6:30 PM 53.6 °F 48.2 °F 82% 29.95 in 6.2 mi SW 4.6 mph - N/A Rain Light Rain
7:00 PM 53.6 °F 50.0 °F 88% 29.95 in 6.2 mi WNW 3.5 mph - N/A Rain Light Rain
7:30 PM 53.6 °F 50.0 °F 88% 29.95 in 6.2 mi Variable 2.3 mph - N/A Rain Light Rain
8:00 PM 53 °F 49 °F 80% 29.95 in 12 mi WSW 4.5 mph - - Rain Light Rain
8:00 PM 53.6 °F 48.2 °F 82% 29.95 in 6.2 mi WSW 4.6 mph - N/A   Scattered Clouds
8:30 PM 51.8 °F 48.2 °F 88% 29.95 in 6.2 mi WSW 3.5 mph - N/A   Partly Cloudy
9:00 PM 51.8 °F 48.2 °F 88% 29.95 in - WSW 5.8 mph - N/A   Clear
9:30 PM 51.8 °F 50.0 °F 94% 29.95 in 6.2 mi WSW 9.2 mph - N/A   Partly Cloudy
10:00 PM 51.8 °F 48.2 °F 88% 29.95 in - WSW 6.9 mph - N/A   Clear
10:30 PM 50.0 °F 48.2 °F 94% 29.95 in - WSW 5.8 mph - N/A   Clear
11:00 PM 50.0 °F 48.2 °F 94% 29.95 in - SW 5.8 mph - N/A   Clear
11:30 PM 50.0 °F 48.2 °F 94% 29.98 in - SW 8.1 mph - N/A   Clear